Simultaneous Nadir Overpasses (SNOs) Predictions

Prediction of SNOs between FY3D and NOAA-19 Satellite Orbit:

Table of predicted SNOs for the next 14.0 days since TLE Epoch: 6/24/2023
Index Date (FY3D) Time (FY3D) Lat,Lon (FY3D) SZA (FY3D ) Date (NOAA-19) Time (NOAA-19) Lat,Lon (NOAA-19) SZA (NOAA-19 ) Distance(km) Time Diff (sec)
1 07/07/2023 00:46:18 76.56, 159.89 54.08 07/07/2023 00:45:06 76.54, 159.97 54.06 3.16 72
2 07/07/2023 01:37:03 -76.55, -32.77 125.93 07/07/2023 01:36:01 -76.54, -32.75 125.93 1.47 62
3 07/07/2023 02:27:49 76.54, 134.59 54.06 07/07/2023 02:27:05 76.54, 134.48 54.07 3.01 44
4 07/07/2023 03:18:35 -76.57, -58.24 125.90 07/07/2023 03:18:00 -76.54, -58.24 125.93 3.92 35
5 07/07/2023 04:09:21 76.56, 109.12 54.09 07/07/2023 04:09:03 76.58, 109.16 54.11 2.28 18
6 07/07/2023 05:00:06 -76.55, -83.54 125.91 07/07/2023 04:59:58 -76.58, -83.56 125.88 3.20 8
7 07/07/2023 05:50:53 76.58, 83.65 54.13 07/07/2023 05:51:02 76.58, 83.66 54.12 0.67 9
8 07/07/2023 06:41:38 -76.58,-109.01 125.88 07/07/2023 06:41:57 -76.58,-109.05 125.88 1.13 19
9 07/07/2023 07:32:25 76.61, 58.18 54.16 07/07/2023 07:33:01 76.58, 58.17 54.13 3.13 36
10 07/07/2023 08:23:10 -76.60,-134.48 125.84 07/07/2023 08:23:56 -76.58,-134.54 125.87 2.49 46
11 07/07/2023 09:13:57 76.63, 32.71 54.20 07/07/2023 09:14:59 76.62, 32.85 54.17 3.96 62
12 07/07/2023 10:04:42 -76.62,-159.96 125.81 07/07/2023 10:05:54 -76.63,-159.86 125.83 2.48 72



Historial Predications of SNOs between FY3D and NOAA-19
